owner,sensor,date,latitude,longitude,air_temperature,qcFlag 
COMPS,ioos:station:USF.COMPS:C13:1,2017-04-01T00:05:00Z,26.0630,-83.0730,23.45,1111122 
COMPS,ioos:station:USF.COMPS:C13:1,2017-04-01T00:35:00Z,26.0630,-83.0730,23.62,1111122 
COMPS,ioos:station:USF.COMPS:C13:1,2017-04-01T01:05:00Z,26.0630,-83.0730,23.69,1111122 
COMPS,ioos:station:USF.COMPS:C13:1,2017-04-01T01:35:00Z,26.0630,-83.0730,23.68,1111122 
COMPS,ioos:station:USF.COMPS:C13:1,2017-04-01T02:05:00Z,26.0630,-83.0730,23.62,1111122 
COMPS,ioos:station:USF.COMPS:C13:1,2017-04-01T02:35:00Z,26.0630,-83.0730,23.64,1111122 
COMPS,ioos:station:USF.COMPS:C13:1,2017-04-01T03:05:00Z,26.0630,-83.0730,23.72,1111122 
COMPS,ioos:station:USF.COMPS:C13:1,2017-04-01T03:35:00Z,26.0630,-83.0730,23.55,1111122 
COMPS,ioos:station:USF.COMPS:C13:1,2017-04-01T04:05:00Z,26.0630,-83.0730,23.5,1111122 
COMPS,ioos:station:USF.COMPS:C13:1,2017-04-01T04:35:00Z,26.0630,-83.0730,23.31,1111122 
COMPS,ioos:station:USF.COMPS:C13:1,2017-04-01T05:05:00Z,26.0630,-83.0730,23.19,1111122 
COMPS,ioos:station:USF.COMPS:C13:1,2017-04-01T05:35:00Z,26.0630,-83.0730,23.04,1111122 
COMPS,ioos:station:USF.COMPS:C13:1,2017-04-01T06:05:00Z,26.0630,-83.0730,22.88,1111122 
COMPS,ioos:station:USF.COMPS:C13:1,2017-04-01T06:35:00Z,26.0630,-83.0730,22.79,1111122 
COMPS,ioos:station:USF.COMPS:C13:1,2017-04-01T07:05:00Z,26.0630,-83.0730,22.8,1111122 
COMPS,ioos:station:USF.COMPS:C13:1,2017-04-01T07:35:00Z,26.0630,-83.0730,22.75,1111122 
COMPS,ioos:station:USF.COMPS:C13:1,2017-04-01T08:05:00Z,26.0630,-83.0730,22.66,1111122 
COMPS,ioos:station:USF.COMPS:C13:1,2017-04-01T08:35:00Z,26.0630,-83.0730,22.59,1111122 
COMPS,ioos:station:USF.COMPS:C13:1,2017-04-01T09:05:00Z,26.0630,-83.0730,22.54,1111122 
COMPS,ioos:station:USF.COMPS:C13:1,2017-04-01T09:35:00Z,26.0630,-83.0730,22.61,1111122 
COMPS,ioos:station:USF.COMPS:C13:1,2017-04-01T10:05:00Z,26.0630,-83.0730,22.59,1111122 
COMPS,ioos:station:USF.COMPS:C13:1,2017-04-01T10:35:00Z,26.0630,-83.0730,22.62,1111122 
COMPS,ioos:station:USF.COMPS:C13:1,2017-04-01T11:05:00Z,26.0630,-83.0730,22.67,1111122 
COMPS,ioos:station:USF.COMPS:C13:1,2017-04-01T11:35:00Z,26.0630,-83.0730,22.73,1111122 
COMPS,ioos:station:USF.COMPS:C13:1,2017-04-01T12:05:00Z,26.0630,-83.0730,22.76,1111122 
COMPS,ioos:station:USF.COMPS:C13:1,2017-04-01T12:35:00Z,26.0630,-83.0730,22.88,1111122 
COMPS,ioos:station:USF.COMPS:C13:1,2017-04-01T16:05:00Z,26.0630,-83.0730,23.14,1111122 
COMPS,ioos:station:USF.COMPS:C13:1,2017-04-01T16:35:00Z,26.0630,-83.0730,23.21,1111122 
COMPS,ioos:station:USF.COMPS:C13:1,2017-04-01T20:05:00Z,26.0630,-83.0730,23.41,1111122 
COMPS,ioos:station:USF.COMPS:C13:1,2017-04-01T20:35:00Z,26.0630,-83.0730,23.31,1111122 
COMPS,ioos:station:USF.COMPS:C13:1,2017-04-01T21:05:00Z,26.0630,-83.0730,23.39,1111122 
COMPS,ioos:station:USF.COMPS:C13:1,2017-04-01T21:35:00Z,26.0630,-83.0730,23.49,1111122 
COMPS,ioos:station:USF.COMPS:C13:1,2017-04-01T22:05:00Z,26.0630,-83.0730,23.8,1111122 
COMPS,ioos:station:USF.COMPS:C13:1,2017-04-01T22:35:00Z,26.0630,-83.0730,23.52,1111122 
COMPS,ioos:station:USF.COMPS:C13:1,2017-04-01T23:05:00Z,26.0630,-83.0730,23.37,1111122 
COMPS,ioos:station:USF.COMPS:C13:1,2017-04-01T23:35:00Z,26.0630,-83.0730,23.47,1111122 
COMPS,ioos:station:USF.COMPS:C13:1,2017-04-02T00:05:00Z,26.0630,-83.0730,23.29,1111122 
COMPS,ioos:station:USF.COMPS:C13:1,2017-04-02T00:35:00Z,26.0630,-83.0730,23.23,1111122 
COMPS,ioos:station:USF.COMPS:C13:1,2017-04-02T01:05:00Z,26.0630,-83.0730,23.12,1111122 
COMPS,ioos:station:USF.COMPS:C13:1,2017-04-02T01:35:00Z,26.0630,-83.0730,23.14,1111122 
COMPS,ioos:station:USF.COMPS:C13:1,2017-04-02T02:05:00Z,26.0630,-83.0730,23.12,1111122 
COMPS,ioos:station:USF.COMPS:C13:1,2017-04-02T02:35:00Z,26.0630,-83.0730,23.06,1111122 
COMPS,ioos:station:USF.COMPS:C13:1,2017-04-02T03:05:00Z,26.0630,-83.0730,23.09,1111122 
COMPS,ioos:station:USF.COMPS:C13:1,2017-04-02T03:35:00Z,26.0630,-83.0730,23.14,1111122 
COMPS,ioos:station:USF.COMPS:C13:1,2017-04-02T04:05:00Z,26.0630,-83.0730,23.1,1111122 
COMPS,ioos:station:USF.COMPS:C13:1,2017-04-02T04:35:00Z,26.0630,-83.0730,23.06,1111122 
COMPS,ioos:station:USF.COMPS:C13:1,2017-04-02T05:05:00Z,26.0630,-83.0730,23.1,1111122 
COMPS,ioos:station:USF.COMPS:C13:1,2017-04-02T05:35:00Z,26.0630,-83.0730,23.07,1111122 
COMPS,ioos:station:USF.COMPS:C13:1,2017-04-02T06:05:00Z,26.0630,-83.0730,23.1,1111122 
COMPS,ioos:station:USF.COMPS:C13:1,2017-04-02T06:35:00Z,26.0630,-83.0730,22.95,1111122 
COMPS,ioos:station:USF.COMPS:C13:1,2017-04-02T07:05:00Z,26.0630,-83.0730,22.71,1111122 
COMPS,ioos:station:USF.COMPS:C13:1,2017-04-02T07:35:00Z,26.0630,-83.0730,22.66,1111122 
COMPS,ioos:station:USF.COMPS:C13:1,2017-04-02T08:05:00Z,26.0630,-83.0730,22.54,1111122 
COMPS,ioos:station:USF.COMPS:C13:1,2017-04-02T08:35:00Z,26.0630,-83.0730,22.48,1111122 
COMPS,ioos:station:USF.COMPS:C13:1,2017-04-02T09:05:00Z,26.0630,-83.0730,22.34,1111122 
COMPS,ioos:station:USF.COMPS:C13:1,2017-04-02T09:35:00Z,26.0630,-83.0730,22.43,1111122 
COMPS,ioos:station:USF.COMPS:C13:1,2017-04-02T10:05:00Z,26.0630,-83.0730,22.32,1111122 
COMPS,ioos:station:USF.COMPS:C13:1,2017-04-02T10:35:00Z,26.0630,-83.0730,22.54,1111122 
COMPS,ioos:station:USF.COMPS:C13:1,2017-04-02T11:05:00Z,26.0630,-83.0730,22.7,1111122 
COMPS,ioos:station:USF.COMPS:C13:1,2017-04-02T11:35:00Z,26.0630,-83.0730,22.75,1111122 
COMPS,ioos:station:USF.COMPS:C13:1,2017-04-02T12:05:00Z,26.0630,-83.0730,22.82,1111122 
COMPS,ioos:station:USF.COMPS:C13:1,2017-04-02T12:35:00Z,26.0630,-83.0730,22.97,1111122 
COMPS,ioos:station:USF.COMPS:C13:1,2017-04-02T13:05:00Z,26.0630,-83.0730,23.02,1111122 
COMPS,ioos:station:USF.COMPS:C13:1,2017-04-02T13:35:00Z,26.0630,-83.0730,23.01,1111122 
COMPS,ioos:station:USF.COMPS:C13:1,2017-04-02T14:05:00Z,26.0630,-83.0730,23.21,1111122 
COMPS,ioos:station:USF.COMPS:C13:1,2017-04-02T14:35:00Z,26.0630,-83.0730,23.38,1111122 
COMPS,ioos:station:USF.COMPS:C13:1,2017-04-02T15:05:00Z,26.0630,-83.0730,23.47,1111122 
COMPS,ioos:station:USF.COMPS:C13:1,2017-04-02T15:35:00Z,26.0630,-83.0730,23.57,1111122 
COMPS,ioos:station:USF.COMPS:C13:1,2017-04-02T22:05:00Z,26.0630,-83.0730,24.34,1111122 
COMPS,ioos:station:USF.COMPS:C13:1,2017-04-02T22:35:00Z,26.0630,-83.0730,24.16,1111122 
COMPS,ioos:station:USF.COMPS:C13:1,2017-04-02T23:05:00Z,26.0630,-83.0730,24.03,1111122 
COMPS,ioos:station:USF.COMPS:C13:1,2017-04-02T23:35:00Z,26.0630,-83.0730,24.04,1111122 
COMPS,ioos:station:USF.COMPS:C13:1,2017-04-03T00:05:00Z,26.0630,-83.0730,23.97,1111122 
COMPS,ioos:station:USF.COMPS:C13:1,2017-04-03T00:35:00Z,26.0630,-83.0730,23.96,1111122 
COMPS,ioos:station:USF.COMPS:C13:1,2017-04-03T02:05:00Z,26.0630,-83.0730,24.05,1111122 
COMPS,ioos:station:USF.COMPS:C13:1,2017-04-03T02:35:00Z,26.0630,-83.0730,24.02,1111122 
COMPS,ioos:station:USF.COMPS:C13:1,2017-04-03T03:05:00Z,26.0630,-83.0730,23.99,1111122 
COMPS,ioos:station:USF.COMPS:C13:1,2017-04-03T03:35:00Z,26.0630,-83.0730,23.98,1111122 
COMPS,ioos:station:USF.COMPS:C13:1,2017-04-03T04:05:00Z,26.0630,-83.0730,24.12,1111122 
COMPS,ioos:station:USF.COMPS:C13:1,2017-04-03T04:35:00Z,26.0630,-83.0730,24.29,1111122 
COMPS,ioos:station:USF.COMPS:C13:1,2017-04-03T05:05:00Z,26.0630,-83.0730,24.26,1111122 
COMPS,ioos:station:USF.COMPS:C13:1,2017-04-03T05:35:00Z,26.0630,-83.0730,24.12,1111122 
COMPS,ioos:station:USF.COMPS:C13:1,2017-04-03T06:05:00Z,26.0630,-83.0730,23.91,1111122 
COMPS,ioos:station:USF.COMPS:C13:1,2017-04-03T06:35:00Z,26.0630,-83.0730,23.88,1111122 
COMPS,ioos:station:USF.COMPS:C13:1,2017-04-03T07:05:00Z,26.0630,-83.0730,23.72,1111122 
COMPS,ioos:station:USF.COMPS:C13:1,2017-04-03T07:35:00Z,26.0630,-83.0730,23.66,1111122 
COMPS,ioos:station:USF.COMPS:C13:1,2017-04-03T08:05:00Z,26.0630,-83.0730,23.67,1111122 
COMPS,ioos:station:USF.COMPS:C13:1,2017-04-03T08:35:00Z,26.0630,-83.0730,23.71,1111122 
COMPS,ioos:station:USF.COMPS:C13:1,2017-04-03T09:05:00Z,26.0630,-83.0730,23.69,1111122 
COMPS,ioos:station:USF.COMPS:C13:1,2017-04-03T09:35:00Z,26.0630,-83.0730,23.72,1111122 
COMPS,ioos:station:USF.COMPS:C13:1,2017-04-03T10:05:00Z,26.0630,-83.0730,23.79,1111122 
COMPS,ioos:station:USF.COMPS:C13:1,2017-04-03T10:35:00Z,26.0630,-83.0730,23.88,1111122 
COMPS,ioos:station:USF.COMPS:C13:1,2017-04-03T11:05:00Z,26.0630,-83.0730,23.9,1111122 
COMPS,ioos:station:USF.COMPS:C13:1,2017-04-03T11:35:00Z,26.0630,-83.0730,23.95,1111122 
COMPS,ioos:station:USF.COMPS:C13:1,2017-04-03T12:05:00Z,26.0630,-83.0730,24.04,1111122 
COMPS,ioos:station:USF.COMPS:C13:1,2017-04-03T12:35:00Z,26.0630,-83.0730,24.25,1111122 
COMPS,ioos:station:USF.COMPS:C13:1,2017-04-03T13:05:00Z,26.0630,-83.0730,24.15,1111122 
COMPS,ioos:station:USF.COMPS:C13:1,2017-04-03T13:35:00Z,26.0630,-83.0730,24.24,1111122 
COMPS,ioos:station:USF.COMPS:C13:1,2017-04-03T14:05:00Z,26.0630,-83.0730,24.22,1111122 
COMPS,ioos:station:USF.COMPS:C13:1,2017-04-03T14:35:00Z,26.0630,-83.0730,24.22,1111122 
COMPS,ioos:station:USF.COMPS:C13:1,2017-04-03T15:05:00Z,26.0630,-83.0730,24.15,1111122 
COMPS,ioos:station:USF.COMPS:C13:1,2017-04-03T15:35:00Z,26.0630,-83.0730,24.23,1111122 
COMPS,ioos:station:USF.COMPS:C13:1,2017-04-03T16:05:00Z,26.0630,-83.0730,24.26,1111122 
COMPS,ioos:station:USF.COMPS:C13:1,2017-04-03T16:35:00Z,26.0630,-83.0730,24.36,1111122 
COMPS,ioos:station:USF.COMPS:C13:1,2017-04-03T17:05:00Z,26.0630,-83.0730,24.28,1111122 
COMPS,ioos:station:USF.COMPS:C13:1,2017-04-03T17:35:00Z,26.0630,-83.0730,24.28,1111122 
COMPS,ioos:station:USF.COMPS:C13:1,2017-04-03T18:05:00Z,26.0630,-83.0730,24.29,1111122 
COMPS,ioos:station:USF.COMPS:C13:1,2017-04-03T18:35:00Z,26.0630,-83.0730,24.4,1111122 
COMPS,ioos:station:USF.COMPS:C13:1,2017-04-03T19:05:00Z,26.0630,-83.0730,24.49,1111122 
COMPS,ioos:station:USF.COMPS:C13:1,2017-04-03T19:35:00Z,26.0630,-83.0730,24.45,1111122 
COMPS,ioos:station:USF.COMPS:C13:1,2017-04-03T20:05:00Z,26.0630,-83.0730,24.45,1111122 
COMPS,ioos:station:USF.COMPS:C13:1,2017-04-03T20:35:00Z,26.0630,-83.0730,24.43,1111122 
COMPS,ioos:station:USF.COMPS:C13:1,2017-04-03T21:05:00Z,26.0630,-83.0730,24.43,1111122 
COMPS,ioos:station:USF.COMPS:C13:1,2017-04-03T21:35:00Z,26.0630,-83.0730,24.46,1111122 
COMPS,ioos:station:USF.COMPS:C13:1,2017-04-03T22:05:00Z,26.0630,-83.0730,24.47,1111122 
COMPS,ioos:station:USF.COMPS:C13:1,2017-04-03T22:35:00Z,26.0630,-83.0730,24.47,1111122 
COMPS,ioos:station:USF.COMPS:C13:1,2017-04-03T23:05:00Z,26.0630,-83.0730,24.35,1111122 
COMPS,ioos:station:USF.COMPS:C13:1,2017-04-03T23:35:00Z,26.0630,-83.0730,24.23,1111122 
COMPS,ioos:station:USF.COMPS:C13:1,2017-04-04T00:05:00Z,26.0630,-83.0730,24.13,1111122 
COMPS,ioos:station:USF.COMPS:C13:1,2017-04-04T00:35:00Z,26.0630,-83.0730,24.14,1111122 
COMPS,ioos:station:USF.COMPS:C13:1,2017-04-04T01:05:00Z,26.0630,-83.0730,24.06,1111122 
COMPS,ioos:station:USF.COMPS:C13:1,2017-04-04T01:35:00Z,26.0630,-83.0730,24.08,1111122 
COMPS,ioos:station:USF.COMPS:C13:1,2017-04-04T02:05:00Z,26.0630,-83.0730,24.1,1111122 
COMPS,ioos:station:USF.COMPS:C13:1,2017-04-04T02:35:00Z,26.0630,-83.0730,24.21,1111122 
COMPS,ioos:station:USF.COMPS:C13:1,2017-04-04T03:05:00Z,26.0630,-83.0730,24.21,1111122 
COMPS,ioos:station:USF.COMPS:C13:1,2017-04-04T03:35:00Z,26.0630,-83.0730,24.26,1111122 
COMPS,ioos:station:USF.COMPS:C13:1,2017-04-04T04:05:00Z,26.0630,-83.0730,24.19,1111122 
COMPS,ioos:station:USF.COMPS:C13:1,2017-04-04T04:35:00Z,26.0630,-83.0730,24.16,1111122 
COMPS,ioos:station:USF.COMPS:C13:1,2017-04-04T05:05:00Z,26.0630,-83.0730,24.11,1111122 
COMPS,ioos:station:USF.COMPS:C13:1,2017-04-04T05:35:00Z,26.0630,-83.0730,24.1,1111122 
COMPS,ioos:station:USF.COMPS:C13:1,2017-04-04T06:05:00Z,26.0630,-83.0730,24.08,1111122 
COMPS,ioos:station:USF.COMPS:C13:1,2017-04-04T06:35:00Z,26.0630,-83.0730,24.11,1111122 
COMPS,ioos:station:USF.COMPS:C13:1,2017-04-04T07:05:00Z,26.0630,-83.0730,24.03,1111122 
COMPS,ioos:station:USF.COMPS:C13:1,2017-04-04T07:35:00Z,26.0630,-83.0730,24.0,1111122 
COMPS,ioos:station:USF.COMPS:C13:1,2017-04-04T08:05:00Z,26.0630,-83.0730,23.9,1111122 
COMPS,ioos:station:USF.COMPS:C13:1,2017-04-04T08:35:00Z,26.0630,-83.0730,23.87,1111122 
COMPS,ioos:station:USF.COMPS:C13:1,2017-04-04T09:05:00Z,26.0630,-83.0730,23.84,1111122 
COMPS,ioos:station:USF.COMPS:C13:1,2017-04-04T09:35:00Z,26.0630,-83.0730,23.81,1111122 
COMPS,ioos:station:USF.COMPS:C13:1,2017-04-04T10:05:00Z,26.0630,-83.0730,23.83,1111122 
COMPS,ioos:station:USF.COMPS:C13:1,2017-04-04T10:35:00Z,26.0630,-83.0730,23.87,1111122 
COMPS,ioos:station:USF.COMPS:C13:1,2017-04-04T11:05:00Z,26.0630,-83.0730,23.81,1111122 
COMPS,ioos:station:USF.COMPS:C13:1,2017-04-04T11:35:00Z,26.0630,-83.0730,23.85,1111122 
COMPS,ioos:station:USF.COMPS:C13:1,2017-04-04T12:05:00Z,26.0630,-83.0730,23.93,1111122 
COMPS,ioos:station:USF.COMPS:C13:1,2017-04-04T12:35:00Z,26.0630,-83.0730,24.13,1111122 
COMPS,ioos:station:USF.COMPS:C13:1,2017-04-04T13:05:00Z,26.0630,-83.0730,24.25,1111122 
COMPS,ioos:station:USF.COMPS:C13:1,2017-04-04T13:35:00Z,26.0630,-83.0730,24.24,1111122 
COMPS,ioos:station:USF.COMPS:C13:1,2017-04-04T14:05:00Z,26.0630,-83.0730,24.2,1111122 
COMPS,ioos:station:USF.COMPS:C13:1,2017-04-04T14:35:00Z,26.0630,-83.0730,24.16,1111122 
COMPS,ioos:station:USF.COMPS:C13:1,2017-04-04T15:05:00Z,26.0630,-83.0730,24.09,1111122 
COMPS,ioos:station:USF.COMPS:C13:1,2017-04-04T15:35:00Z,26.0630,-83.0730,24.1,1111122 
COMPS,ioos:station:USF.COMPS:C13:1,2017-04-04T16:05:00Z,26.0630,-83.0730,24.21,1111122 
COMPS,ioos:station:USF.COMPS:C13:1,2017-04-04T16:35:00Z,26.0630,-83.0730,24.23,1111122 
COMPS,ioos:station:USF.COMPS:C13:1,2017-04-04T17:05:00Z,26.0630,-83.0730,24.25,1111122 
COMPS,ioos:station:USF.COMPS:C13:1,2017-04-04T17:35:00Z,26.0630,-83.0730,24.27,1111122 
COMPS,ioos:station:USF.COMPS:C13:1,2017-04-04T18:05:00Z,26.0630,-83.0730,24.29,1111122 
COMPS,ioos:station:USF.COMPS:C13:1,2017-04-04T18:35:00Z,26.0630,-83.0730,24.34,1111122 
COMPS,ioos:station:USF.COMPS:C13:1,2017-04-04T19:05:00Z,26.0630,-83.0730,24.32,1111122 
COMPS,ioos:station:USF.COMPS:C13:1,2017-04-04T19:35:00Z,26.0630,-83.0730,24.37,1111122 
COMPS,ioos:station:USF.COMPS:C13:1,2017-04-04T20:05:00Z,26.0630,-83.0730,24.4,1111122 
COMPS,ioos:station:USF.COMPS:C13:1,2017-04-04T20:35:00Z,26.0630,-83.0730,24.44,1111122 
COMPS,ioos:station:USF.COMPS:C13:1,2017-04-04T21:05:00Z,26.0630,-83.0730,24.47,1111122 
COMPS,ioos:station:USF.COMPS:C13:1,2017-04-04T21:35:00Z,26.0630,-83.0730,24.54,1111122 
COMPS,ioos:station:USF.COMPS:C13:1,2017-04-04T22:05:00Z,26.0630,-83.0730,24.53,1111122 
COMPS,ioos:station:USF.COMPS:C13:1,2017-04-04T22:35:00Z,26.0630,-83.0730,24.54,1111122 
COMPS,ioos:station:USF.COMPS:C13:1,2017-04-05T15:05:00Z,26.0630,-83.0730,24.65,1111122 
COMPS,ioos:station:USF.COMPS:C13:1,2017-04-05T15:35:00Z,26.0630,-83.0730,24.66,1111122 
COMPS,ioos:station:USF.COMPS:C13:1,2017-04-05T16:05:00Z,26.0630,-83.0730,24.65,1111122 
COMPS,ioos:station:USF.COMPS:C13:1,2017-04-05T16:35:00Z,26.0630,-83.0730,24.62,1111122 
COMPS,ioos:station:USF.COMPS:C13:1,2017-04-05T17:05:00Z,26.0630,-83.0730,24.56,1111122 
COMPS,ioos:station:USF.COMPS:C13:1,2017-04-05T17:35:00Z,26.0630,-83.0730,24.62,1111122 
COMPS,ioos:station:USF.COMPS:C13:1,2017-04-05T18:05:00Z,26.0630,-83.0730,24.65,1111122 
COMPS,ioos:station:USF.COMPS:C13:1,2017-04-05T18:35:00Z,26.0630,-83.0730,24.72,1111122 
COMPS,ioos:station:USF.COMPS:C13:1,2017-04-05T19:05:00Z,26.0630,-83.0730,24.72,1111122 
COMPS,ioos:station:USF.COMPS:C13:1,2017-04-05T19:35:00Z,26.0630,-83.0730,24.75,1111122 
COMPS,ioos:station:USF.COMPS:C13:1,2017-04-05T20:05:00Z,26.0630,-83.0730,24.73,1111122 
COMPS,ioos:station:USF.COMPS:C13:1,2017-04-05T20:35:00Z,26.0630,-83.0730,24.74,1111122 
COMPS,ioos:station:USF.COMPS:C13:1,2017-04-05T21:05:00Z,26.0630,-83.0730,24.69,1111122 
COMPS,ioos:station:USF.COMPS:C13:1,2017-04-05T21:35:00Z,26.0630,-83.0730,24.72,1111122 
COMPS,ioos:station:USF.COMPS:C13:1,2017-04-05T22:05:00Z,26.0630,-83.0730,24.7,1111122 
COMPS,ioos:station:USF.COMPS:C13:1,2017-04-05T22:35:00Z,26.0630,-83.0730,24.63,1111122 
COMPS,ioos:station:USF.COMPS:C13:1,2017-04-05T23:05:00Z,26.0630,-83.0730,24.39,1111122 
COMPS,ioos:station:USF.COMPS:C13:1,2017-04-05T23:35:00Z,26.0630,-83.0730,24.26,1111122 
COMPS,ioos:station:USF.COMPS:C13:1,2017-04-06T00:05:00Z,26.0630,-83.0730,24.17,1111122 
COMPS,ioos:station:USF.COMPS:C13:1,2017-04-06T00:35:00Z,26.0630,-83.0730,24.13,1111122 
COMPS,ioos:station:USF.COMPS:C13:1,2017-04-06T01:05:00Z,26.0630,-83.0730,24.15,1111122 
COMPS,ioos:station:USF.COMPS:C13:1,2017-04-06T01:35:00Z,26.0630,-83.0730,24.19,1111122 
COMPS,ioos:station:USF.COMPS:C13:1,2017-04-06T02:05:00Z,26.0630,-83.0730,24.16,1111122 
COMPS,ioos:station:USF.COMPS:C13:1,2017-04-06T02:35:00Z,26.0630,-83.0730,24.13,1111122 
COMPS,ioos:station:USF.COMPS:C13:1,2017-04-06T03:05:00Z,26.0630,-83.0730,24.1,1111122 
COMPS,ioos:station:USF.COMPS:C13:1,2017-04-06T03:35:00Z,26.0630,-83.0730,24.16,1111122 
COMPS,ioos:station:USF.COMPS:C13:1,2017-04-06T04:05:00Z,26.0630,-83.0730,24.1,1111122 
COMPS,ioos:station:USF.COMPS:C13:1,2017-04-06T04:35:00Z,26.0630,-83.0730,24.08,1111122 
COMPS,ioos:station:USF.COMPS:C13:1,2017-04-06T05:05:00Z,26.0630,-83.0730,24.13,1111122 
COMPS,ioos:station:USF.COMPS:C13:1,2017-04-06T05:35:00Z,26.0630,-83.0730,24.23,1111122 
COMPS,ioos:station:USF.COMPS:C13:1,2017-04-06T06:05:00Z,26.0630,-83.0730,24.18,1111122 
COMPS,ioos:station:USF.COMPS:C13:1,2017-04-06T06:35:00Z,26.0630,-83.0730,24.24,1111122 
COMPS,ioos:station:USF.COMPS:C13:1,2017-04-06T07:05:00Z,26.0630,-83.0730,24.23,1111122 
COMPS,ioos:station:USF.COMPS:C13:1,2017-04-06T07:35:00Z,26.0630,-83.0730,24.28,1111122 
COMPS,ioos:station:USF.COMPS:C13:1,2017-04-06T08:05:00Z,26.0630,-83.0730,24.25,1111122 
COMPS,ioos:station:USF.COMPS:C13:1,2017-04-06T08:35:00Z,26.0630,-83.0730,24.19,1111122 
COMPS,ioos:station:USF.COMPS:C13:1,2017-04-06T09:05:00Z,26.0630,-83.0730,24.11,1111122 
COMPS,ioos:station:USF.COMPS:C13:1,2017-04-06T09:35:00Z,26.0630,-83.0730,24.16,1111122 
COMPS,ioos:station:USF.COMPS:C13:1,2017-04-06T10:05:00Z,26.0630,-83.0730,24.28,1111122 
COMPS,ioos:station:USF.COMPS:C13:1,2017-04-06T10:35:00Z,26.0630,-83.0730,24.21,1111122 
COMPS,ioos:station:USF.COMPS:C13:1,2017-04-06T11:05:00Z,26.0630,-83.0730,24.31,1111122 
COMPS,ioos:station:USF.COMPS:C13:1,2017-04-06T11:35:00Z,26.0630,-83.0730,24.56,1111122 
COMPS,ioos:station:USF.COMPS:C13:1,2017-04-06T12:05:00Z,26.0630,-83.0730,24.57,1111122 
COMPS,ioos:station:USF.COMPS:C13:1,2017-04-06T12:35:00Z,26.0630,-83.0730,24.8,1111122 
COMPS,ioos:station:USF.COMPS:C13:1,2017-04-06T13:05:00Z,26.0630,-83.0730,24.84,1111122 
COMPS,ioos:station:USF.COMPS:C13:1,2017-04-06T13:35:00Z,26.0630,-83.0730,23.9,1111122 
COMPS,ioos:station:USF.COMPS:C13:1,2017-04-06T14:05:00Z,26.0630,-83.0730,23.7,1111122 
COMPS,ioos:station:USF.COMPS:C13:1,2017-04-06T14:35:00Z,26.0630,-83.0730,23.69,1111122 
COMPS,ioos:station:USF.COMPS:C13:1,2017-04-06T15:05:00Z,26.0630,-83.0730,23.79,1111122 
COMPS,ioos:station:USF.COMPS:C13:1,2017-04-06T15:35:00Z,26.0630,-83.0730,23.49,1111122 
COMPS,ioos:station:USF.COMPS:C13:1,2017-04-06T16:05:00Z,26.0630,-83.0730,23.18,1111122 
COMPS,ioos:station:USF.COMPS:C13:1,2017-04-06T16:35:00Z,26.0630,-83.0730,23.0,1111122 
COMPS,ioos:station:USF.COMPS:C13:1,2017-04-06T17:05:00Z,26.0630,-83.0730,22.73,1111122 
COMPS,ioos:station:USF.COMPS:C13:1,2017-04-06T17:35:00Z,26.0630,-83.0730,22.63,1111122 
COMPS,ioos:station:USF.COMPS:C13:1,2017-04-06T18:05:00Z,26.0630,-83.0730,22.34,1111122 
COMPS,ioos:station:USF.COMPS:C13:1,2017-04-06T18:35:00Z,26.0630,-83.0730,22.29,1111122 
COMPS,ioos:station:USF.COMPS:C13:1,2017-04-06T19:05:00Z,26.0630,-83.0730,22.09,1111122 
COMPS,ioos:station:USF.COMPS:C13:1,2017-04-06T19:35:00Z,26.0630,-83.0730,22.02,1111122 
COMPS,ioos:station:USF.COMPS:C13:1,2017-04-06T20:05:00Z,26.0630,-83.0730,21.7,1111122 
COMPS,ioos:station:USF.COMPS:C13:1,2017-04-06T20:35:00Z,26.0630,-83.0730,21.6,1111122 
COMPS,ioos:station:USF.COMPS:C13:1,2017-04-06T21:05:00Z,26.0630,-83.0730,21.49,1111122 
COMPS,ioos:station:USF.COMPS:C13:1,2017-04-06T21:35:00Z,26.0630,-83.0730,21.31,1111122 
COMPS,ioos:station:USF.COMPS:C13:1,2017-04-06T22:05:00Z,26.0630,-83.0730,21.37,1111122 
COMPS,ioos:station:USF.COMPS:C13:1,2017-04-06T22:35:00Z,26.0630,-83.0730,21.42,1111122 
COMPS,ioos:station:USF.COMPS:C13:1,2017-04-06T23:05:00Z,26.0630,-83.0730,21.41,1111122 
COMPS,ioos:station:USF.COMPS:C13:1,2017-04-06T23:35:00Z,26.0630,-83.0730,21.33,1111122 
COMPS,ioos:station:USF.COMPS:C13:1,2017-04-07T00:05:00Z,26.0630,-83.0730,21.21,1111122 
COMPS,ioos:station:USF.COMPS:C13:1,2017-04-07T00:35:00Z,26.0630,-83.0730,21.28,1111122 
COMPS,ioos:station:USF.COMPS:C13:1,2017-04-07T01:05:00Z,26.0630,-83.0730,21.32,1111122 
COMPS,ioos:station:USF.COMPS:C13:1,2017-04-07T01:35:00Z,26.0630,-83.0730,21.27,1111122 
COMPS,ioos:station:USF.COMPS:C13:1,2017-04-07T02:05:00Z,26.0630,-83.0730,21.12,1111122 
COMPS,ioos:station:USF.COMPS:C13:1,2017-04-07T02:35:00Z,26.0630,-83.0730,21.29,1111122 
COMPS,ioos:station:USF.COMPS:C13:1,2017-04-07T03:05:00Z,26.0630,-83.0730,21.15,1111122 
COMPS,ioos:station:USF.COMPS:C13:1,2017-04-07T03:35:00Z,26.0630,-83.0730,21.29,1111122 
COMPS,ioos:station:USF.COMPS:C13:1,2017-04-07T04:05:00Z,26.0630,-83.0730,21.21,1111122 
COMPS,ioos:station:USF.COMPS:C13:1,2017-04-07T04:35:00Z,26.0630,-83.0730,21.22,1111122 
COMPS,ioos:station:USF.COMPS:C13:1,2017-04-07T05:05:00Z,26.0630,-83.0730,21.16,1111122 
COMPS,ioos:station:USF.COMPS:C13:1,2017-04-07T05:35:00Z,26.0630,-83.0730,21.09,1111122 
COMPS,ioos:station:USF.COMPS:C13:1,2017-04-07T06:05:00Z,26.0630,-83.0730,20.97,1111122 
COMPS,ioos:station:USF.COMPS:C13:1,2017-04-07T06:35:00Z,26.0630,-83.0730,20.93,1111122 
COMPS,ioos:station:USF.COMPS:C13:1,2017-04-07T07:05:00Z,26.0630,-83.0730,20.94,1111122 
COMPS,ioos:station:USF.COMPS:C13:1,2017-04-07T07:35:00Z,26.0630,-83.0730,20.94,1111122 
COMPS,ioos:station:USF.COMPS:C13:1,2017-04-07T08:05:00Z,26.0630,-83.0730,20.86,1111122 
COMPS,ioos:station:USF.COMPS:C13:1,2017-04-07T08:35:00Z,26.0630,-83.0730,20.82,1111122 
COMPS,ioos:station:USF.COMPS:C13:1,2017-04-07T09:05:00Z,26.0630,-83.0730,20.76,1111122 
COMPS,ioos:station:USF.COMPS:C13:1,2017-04-07T09:35:00Z,26.0630,-83.0730,20.82,1111122 
COMPS,ioos:station:USF.COMPS:C13:1,2017-04-07T10:05:00Z,26.0630,-83.0730,20.82,1111122 
COMPS,ioos:station:USF.COMPS:C13:1,2017-04-07T10:35:00Z,26.0630,-83.0730,20.98,1111122 
COMPS,ioos:station:USF.COMPS:C13:1,2017-04-07T11:05:00Z,26.0630,-83.0730,20.97,1111122 
COMPS,ioos:station:USF.COMPS:C13:1,2017-04-07T11:35:00Z,26.0630,-83.0730,21.02,1111122 
COMPS,ioos:station:USF.COMPS:C13:1,2017-04-07T12:05:00Z,26.0630,-83.0730,21.22,1111122 
COMPS,ioos:station:USF.COMPS:C13:1,2017-04-07T12:35:00Z,26.0630,-83.0730,21.21,1111122 
COMPS,ioos:station:USF.COMPS:C13:1,2017-04-07T13:05:00Z,26.0630,-83.0730,21.34,1111122 
COMPS,ioos:station:USF.COMPS:C13:1,2017-04-07T13:35:00Z,26.0630,-83.0730,21.1,1111122 
COMPS,ioos:station:USF.COMPS:C13:1,2017-04-07T14:05:00Z,26.0630,-83.0730,20.18,1111122 
COMPS,ioos:station:USF.COMPS:C13:1,2017-04-07T14:35:00Z,26.0630,-83.0730,19.98,1111122 
COMPS,ioos:station:USF.COMPS:C13:1,2017-04-07T15:05:00Z,26.0630,-83.0730,19.96,1111122 
COMPS,ioos:station:USF.COMPS:C13:1,2017-04-07T15:35:00Z,26.0630,-83.0730,19.83,1111122 
COMPS,ioos:station:USF.COMPS:C13:1,2017-04-07T16:05:00Z,26.0630,-83.0730,19.85,1111122 
COMPS,ioos:station:USF.COMPS:C13:1,2017-04-07T16:35:00Z,26.0630,-83.0730,19.83,1111122 
COMPS,ioos:station:USF.COMPS:C13:1,2017-04-07T17:05:00Z,26.0630,-83.0730,19.73,1111122 
COMPS,ioos:station:USF.COMPS:C13:1,2017-04-07T17:35:00Z,26.0630,-83.0730,20.28,1111122 
COMPS,ioos:station:USF.COMPS:C13:1,2017-04-07T18:05:00Z,26.0630,-83.0730,20.22,1111122 
COMPS,ioos:station:USF.COMPS:C13:1,2017-04-07T18:35:00Z,26.0630,-83.0730,20.13,1111122 
COMPS,ioos:station:USF.COMPS:C13:1,2017-04-07T19:05:00Z,26.0630,-83.0730,20.06,1111122 
COMPS,ioos:station:USF.COMPS:C13:1,2017-04-07T19:35:00Z,26.0630,-83.0730,20.05,1111122 
COMPS,ioos:station:USF.COMPS:C13:1,2017-04-07T20:05:00Z,26.0630,-83.0730,19.91,1111122 
COMPS,ioos:station:USF.COMPS:C13:1,2017-04-07T20:35:00Z,26.0630,-83.0730,19.99,1111122 